ET-SMART-RSS

导读 | 星芒AI

ET-SMART-RSS 是一颗用于遥感和数据采集的小型卫星,旨在提升地球观测能力。该卫星具备高分辨率成像和实时数据传输功能,广泛应用于环境监测、灾害预警和资源管理等领域。其模块化设计便于升级和维护,提高了任务灵活性和使用寿命。ET-SMART-RSS 由先进传感器和智能处理系统组成,支持多种遥感任务,为科研和商业用户提供精准、可靠的数据服务。

基本信息
目录编号:
47300
目录名称:
ET-SMART-RSS
国际标识:
2020-102E
轨道中心:
EARTH
卫星名称:
ET-SMART-RSS
卫星全名:
--
卫星状态:
已陨落 最后检测时间 2023-10-21
发射日期:
2020-12-22 UTC
国别 :
中国 (CN)
星等 :
--
轨道信息
数据来源 国际轨道数据
星历时间: 2023-10-22T06:43:13+0800
轨道信息已过期738天
半长轴: 6557.698km
偏心率: 0.0011124
轨道倾角: 97.410°
近地点辐角 284.045°
升交点赤经 49.466°
平近点角 75.961°
近地点: 172.268km
远地点: 186.858km
周期: 88.082分钟
每日圈数: 16.348418
详细信息
使用方式:
暂无